Location: Kalisz
(51.7636°N, 18.0893°E)
Time: 22:35:28
(UTC+02:00)

ISS - Pass Details

Date: 25 March 2019
Orbit: 408 x 410 km, 51.6° (Epoch: 24 April)

Event Time Altitude Azimuth Distance (km) Brightness Sun altitude
Rises 20:13:57 0° 254° (WSW) 2,334 0.7 -19.2°
Reaches altitude 10° 20:16:02 10° 253° (WSW) 1,474 -0.4 -19.5°
Enters shadow 20:19:03 68° 217° (SW) 444 -3.7 -19.9°
